User: anonymous   Login
Location: Raleigh
(35.7720°N, 78.6390°W)
Time: 22:07:37
(UTC-04:00)
Language:

FO-29 - Orbit

View from above orbital plane
View from above orbital plane
View from above satellite
View from above satellite

Ground track
Ground track

The orbit data is extracted from the following two-line orbital elements,

1 24278U 96046B   17081.94393161 -.00000060 +00000-0 -24355-4 0  9992
2 24278 098.5764 336.6289 0349994 200.6619 158.0068 13.53074978016960
Epoch (UTC): 22 March 2017 22:39:15
Eccentricity: 0.0349994
inclination: 98.5764°
perigee height: 800 km
apogee height: 1321 km
right ascension of ascending node: 336.6289°
argument of perigee: 200.6619°
revolutions per day: 13.53074978
mean anomaly at epoch: 158.0068°
orbit number at epoch: 1696

The dashed part of the orbit path shows where the satellite is in the earth's shadow,  

DLR